Greenville, ME

11:04 PM EDT on October 23, 2019 (GMT -0400)
Greenville

Weather History for KGNR - August, 2019

Change the Weather History Date:

Tuesday, August 27, 2019

  Actual Average (WUND) Record (WUND)
Temperature  
Mean Temperature 66 °F -  
Max Temperature 78 °F - - (-1)
Min Temperature 55 °F - - (-1)
Cooling Degree Days 1    
Growing Degree Days 16 (Base 50)    
Moisture  
Dew Point 52 °F    
Average Humidity 66    
Maximum Humidity 89    
Minimum Humidity 31    
Precipitation  
Precipitation 0.00 in - - ()
Sea Level Pressure  
Sea Level Pressure 30.03 in    
Wind  
Wind Speed 3 mph ()    
Max Wind Speed 7 mph    
Max Gust Speed -    
Averages and records for this station are not official NWS values.
T = Trace of Precipitation, MM = Missing Value Source: Averaged Metar Reports

Daily Weather History Graph

Daily Weather History Graph

Search for Another Location

Airport or City:

Astronomy

Aug. 27, 2019 Rise Set
Actual Time 5:53 AM EDT 7:25 PM EDT
Civil Twilight 5:22 AM EDT 7:56 PM EDT
Nautical Twilight 4:44 AM EDT 8:33 PM EDT
Astronomical Twilight 4:04 AM EDT 9:14 PM EDT
Moon 2:03 AM EDT (8/27) 5:53 PM EDT (8/27)
Length of Visible Light 14h 34m
Length of Day
13h 32m
Waning Crescent, 11% of the Moon is Illuminated
Aug 27
Waning Crescent
Aug 30
New
Sep 5
First Quarter
Sep 14
Full
Sep 21
Last Quarter

Hourly Weather History & Observations

Time (EDT) Temp. Dew Point Humidity Pressure Visibility Wind Dir Wind Speed Gust Speed Precip Events Conditions
12:56 AM 57.0 °F 51.1 °F 81% 30.12 in - NNE 3.5 mph - N/A   Unknown
1:56 AM 55.0 °F 52.0 °F 89% 30.12 in - Calm Calm - N/A   Unknown
2:56 AM 57.0 °F 50.0 °F 77% 30.09 in - Variable 3.5 mph - N/A   Unknown
3:56 AM 55.0 °F 50.0 °F 83% 30.08 in - NW 3.5 mph - N/A   Unknown
4:56 AM 55.0 °F 51.1 °F 86% 30.08 in - NNE 4.6 mph - N/A   Unknown
5:56 AM 55.0 °F 52.0 °F 89% 30.07 in - NE 5.8 mph - N/A   Unknown
6:56 AM 55.0 °F 52.0 °F 89% 30.07 in - NE 3.5 mph - N/A   Unknown
7:56 AM 59.0 °F 54.0 °F 83% 30.07 in - North 3.5 mph - N/A   Unknown
8:56 AM 62.1 °F 54.0 °F 75% 30.07 in - Calm Calm - N/A   Unknown
10:56 AM 70.0 °F 51.1 °F 51% 30.06 in - Variable 5.8 mph - N/A   Unknown
11:56 AM 72.0 °F 48.9 °F 44% 30.04 in - NNW 6.9 mph - N/A   Unknown
12:56 PM 73.0 °F 41.0 °F 31% 30.02 in - NW 6.9 mph - N/A   Unknown
1:56 PM 75.0 °F 46.9 °F 37% 30.01 in - NW 6.9 mph - N/A   Unknown
2:56 PM 75.0 °F 51.1 °F 43% 29.99 in - WNW 5.8 mph - N/A   Unknown
3:56 PM 77.0 °F 52.0 °F 42% 29.98 in - Variable 4.6 mph - N/A   Unknown
4:56 PM 75.9 °F 52.0 °F 43% 29.97 in - SSE 3.5 mph - N/A   Unknown
5:56 PM 73.0 °F 52.0 °F 48% 29.97 in - ESE 6.9 mph - N/A   Unknown
6:56 PM 70.0 °F 53.1 °F 55% 29.98 in - SSE 6.9 mph - N/A   Unknown
7:56 PM 66.0 °F 55.9 °F 70% 29.99 in - SE 4.6 mph - N/A   Unknown
8:56 PM 64.0 °F 55.9 °F 75% 29.99 in - Calm Calm - N/A   Unknown
9:56 PM 64.9 °F 55.0 °F 70% 29.99 in - Calm Calm - N/A   Unknown
10:56 PM 61.0 °F 54.0 °F 78% 29.99 in - SE 5.8 mph - N/A   Unknown
11:56 PM 60.1 °F 54.0 °F 80% 29.98 in - SE 5.8 mph - N/A   Unknown